�������l�o���
Date,Time,MP-1(��Sv/h),MP-2(��Sv/h),MP-3(��Sv/h),MP-4(��Sv/h),MP-5(��Sv/h),MP-6(��Sv/h),MP-7(��Sv/h),MP-8(��Sv/h),����,����(m/s),���J
2021/04/29,00:00,0.653,0.965,0.605,1.192,0.847,0.379,0.663,0.618,��쐼,4.0,�L
2021/04/29,00:10,0.652,0.968,0.603,1.197,0.849,0.378,0.662,0.620,�쐼,3.9,�L
2021/04/29,00:20,0.650,0.967,0.603,1.194,0.844,0.380,0.664,0.620,�쐼,3.2,�L
2021/04/29,00:30,0.651,0.965,0.604,1.193,0.846,0.380,0.662,0.617,�쐼,5.3,�L
2021/04/29,00:40,0.650,0.963,0.605,1.194,0.845,0.379,0.664,0.618,�쐼,5.6,�L
2021/04/29,00:50,0.649,0.963,0.603,1.194,0.844,0.378,0.662,0.619,�쐼,5.9,�L
2021/04/29,01:00,0.649,0.965,0.601,1.196,0.844,0.380,0.662,0.619,��쐼,4.7,�L
2021/04/29,01:10,0.648,0.960,0.603,1.192,0.842,0.380,0.662,0.618,��쐼,1.4,�L
2021/04/29,01:20,0.648,0.963,0.602,1.191,0.839,0.380,0.663,0.619,��쐼,3.4,�L
2021/04/29,01:30,0.648,0.961,0.601,1.190,0.841,0.379,0.663,0.619,�쐼,3.5,�L
2021/04/29,01:40,0.649,0.959,0.601,1.189,0.840,0.379,0.663,0.620,�쐼,3.6,�L
2021/04/29,01:50,0.648,0.961,0.600,1.191,0.839,0.378,0.661,0.620,���쐼,2.3,�L
2021/04/29,02:00,0.647,0.961,0.602,1.189,0.839,0.378,0.662,0.618,���k��,2.6,�L
2021/04/29,02:10,0.646,0.958,0.601,1.189,0.839,0.379,0.662,0.618,���k��,2.3,�L
2021/04/29,02:20,0.646,0.958,0.599,1.188,0.838,0.377,0.661,0.618,�k��,0.8,�L
2021/04/29,02:30,0.646,0.956,0.599,1.188,0.838,0.380,0.661,0.618,�k��,1.5,�L
2021/04/29,02:40,0.645,0.955,0.599,1.186,0.835,0.377,0.660,0.617,�k��,1.5,�L
2021/04/29,02:50,0.644,0.953,0.598,1.186,0.831,0.376,0.658,0.615,�k��,2.6,�L
2021/04/29,03:00,0.644,0.950,0.597,1.184,0.830,0.377,0.656,0.614,�k��,2.2,�L
2021/04/29,03:10,0.641,0.949,0.597,1.185,0.830,0.377,0.658,0.614,�k��,2.3,�L
2021/04/29,03:20,0.641,0.950,0.597,1.182,0.828,0.378,0.659,0.613,�k,2.2,�L
2021/04/29,03:30,0.642,0.948,0.596,1.181,0.825,0.376,0.656,0.614,�k,2.5,�L
2021/04/29,03:40,0.643,0.946,0.596,1.178,0.826,0.377,0.657,0.613,�k,3.4,�L
2021/04/29,03:50,0.639,0.944,0.596,1.179,0.823,0.378,0.657,0.613,�k�k��,3.1,�L
2021/04/29,04:00,0.638,0.944,0.597,1.178,0.822,0.376,0.656,0.613,�k��,3.0,�L
2021/04/29,04:10,0.639,0.944,0.594,1.177,0.821,0.376,0.655,0.612,�k�k��,2.6,�L
2021/04/29,04:20,0.637,0.943,0.594,1.175,0.820,0.373,0.654,0.613,�k�k��,2.0,�L
2021/04/29,04:30,0.636,0.938,0.592,1.170,0.816,0.373,0.652,0.612,�k,3.0,�L
2021/04/29,04:40,0.635,0.935,0.592,1.166,0.814,0.375,0.653,0.611,-,CALM,�L
2021/04/29,04:50,0.633,0.932,0.591,1.165,0.811,0.373,0.653,0.613,�k,2.5,�L
2021/04/29,05:00,0.632,0.929,0.589,1.161,0.813,0.372,0.651,0.609,�k�k��,3.1,�L
2021/04/29,05:10,0.632,0.930,0.590,1.159,0.809,0.372,0.651,0.608,�k�k��,2.6,�L
2021/04/29,05:20,0.630,0.928,0.588,1.157,0.807,0.373,0.651,0.607,�k�k��,3.3,�L
2021/04/29,05:30,0.627,0.925,0.588,1.155,0.806,0.371,0.650,0.608,�k�k��,3.8,�L
2021/04/29,05:40,0.628,0.921,0.588,1.151,0.805,0.369,0.649,0.606,�k�k��,3.1,�L
2021/04/29,05:50,0.626,0.920,0.585,1.145,0.801,0.371,0.648,0.606,�k�k��,3.4,�L
2021/04/29,06:00,0.626,0.919,0.585,1.143,0.801,0.371,0.648,0.606,�k,2.6,�L
2021/04/29,06:10,0.626,0.921,0.584,1.142,0.800,0.370,0.647,0.605,�k,3.1,�L
2021/04/29,06:20,0.625,0.917,0.585,1.139,0.799,0.370,0.646,0.604,�k�k��,2.0,�L
2021/04/29,06:30,0.623,0.913,0.583,1.133,0.794,0.369,0.644,0.603,�k�k��,2.3,�L
2021/04/29,06:40,0.620,0.910,0.584,1.129,0.792,0.367,0.643,0.602,�k�k��,3.2,�L
2021/04/29,06:50,0.619,0.907,0.583,1.123,0.792,0.368,0.643,0.602,�k�k��,3.1,�L
2021/04/29,07:00,0.619,0.906,0.581,1.123,0.790,0.367,0.641,0.600,�k�k��,2.3,�L
2021/04/29,07:10,0.617,0.906,0.582,1.121,0.788,0.368,0.641,0.601,�k�k��,2.6,�L
2021/04/29,07:20,0.616,0.901,0.578,1.116,0.788,0.369,0.640,0.601,�k�k��,2.0,�L
2021/04/29,07:30,0.616,0.899,0.581,1.115,0.784,0.367,0.638,0.599,�k�k��,2.2,�L
2021/04/29,07:40,0.614,0.897,0.580,1.111,0.784,0.367,0.639,0.600,�k,1.2,�L
2021/04/29,07:50,0.612,0.894,0.578,1.110,0.781,0.368,0.638,0.598,��쐼,0.6,�L
2021/04/29,08:00,0.612,0.893,0.578,1.107,0.780,0.368,0.638,0.599,�k,0.8,�L
2021/04/29,08:10,0.614,0.896,0.579,1.108,0.782,0.367,0.640,0.600,�k�k��,1.7,�L
2021/04/29,08:20,0.615,0.895,0.579,1.106,0.779,0.367,0.638,0.599,�k�k��,1.2,�L
2021/04/29,08:30,0.612,0.892,0.578,1.104,0.778,0.366,0.637,0.598,�k,0.9,�L
2021/04/29,08:40,0.611,0.891,0.576,1.103,0.779,0.366,0.637,0.597,�k,0.6,�L
2021/04/29,08:50,0.611,0.889,0.575,1.101,0.777,0.364,0.637,0.597,���k��,0.6,�L
2021/04/29,09:00,0.610,0.889,0.575,1.098,0.775,0.367,0.636,0.596,�k,1.4,�L
2021/04/29,09:10,0.609,0.889,0.574,1.100,0.775,0.366,0.636,0.597,�k,1.2,�L
2021/04/29,09:20,0.609,0.891,0.574,1.099,0.777,0.366,0.635,0.597,�k�k��,2.0,�L
2021/04/29,09:30,0.609,0.890,0.575,1.098,0.772,0.366,0.634,0.596,�k�k��,1.5,�L
2021/04/29,09:40,0.609,0.888,0.574,1.098,0.773,0.365,0.634,0.596,�k,1.2,�L
2021/04/29,09:50,0.609,0.888,0.574,1.097,0.773,0.365,0.635,0.597,�k,1.7,�L
2021/04/29,10:00,0.607,0.886,0.573,1.096,0.770,0.364,0.635,0.595,�k,1.5,�L
2021/04/29,10:10,0.606,0.885,0.572,1.094,0.771,0.365,0.631,0.595,�k�k��,2.3,�L
2021/04/29,10:20,0.607,0.885,0.572,1.094,0.772,0.362,0.633,0.597,�k�k��,2.0,�L
2021/04/29,10:30,0.607,0.886,0.572,1.095,0.772,0.363,0.634,0.596,�k,2.0,�L
2021/04/29,10:40,0.609,0.885,0.573,1.096,0.771,0.363,0.635,0.594,�k,3.1,�L
2021/04/29,10:50,0.607,0.886,0.572,1.096,0.771,0.363,0.635,0.596,�k�k��,3.0,�L
2021/04/29,11:00,0.607,0.885,0.571,1.094,0.769,0.364,0.634,0.596,�k,2.6,�L
2021/04/29,11:10,0.606,0.885,0.571,1.095,0.768,0.363,0.632,0.596,�k�k��,3.2,�L
2021/04/29,11:20,0.604,0.882,0.569,1.092,0.767,0.363,0.632,0.594,�k,3.4,�L
2021/04/29,11:30,0.606,0.884,0.570,1.091,0.767,0.362,0.633,0.595,�k�k��,3.1,�L
2021/04/29,11:40,0.605,0.881,0.569,1.091,0.764,0.361,0.634,0.595,�k,5.2,�L
2021/04/29,11:50,0.606,0.882,0.569,1.090,0.766,0.362,0.633,0.594,�k,3.7,�L
2021/04/29,12:00,0.605,0.876,0.569,1.086,0.763,0.363,0.632,0.594,�k,3.8,�L
2021/04/29,12:10,0.604,0.877,0.567,1.085,0.762,0.362,0.630,0.592,�k,5.1,�L
2021/04/29,12:20,0.604,0.878,0.569,1.086,0.764,0.363,0.633,0.595,�k,5.2,�L
2021/04/29,12:30,0.602,0.877,0.569,1.084,0.761,0.362,0.631,0.594,�k,4.8,�L
2021/04/29,12:40,0.600,0.873,0.567,1.084,0.760,0.360,0.631,0.593,�k,5.1,�L
2021/04/29,12:50,0.598,0.873,0.566,1.080,0.758,0.360,0.630,0.591,�k,3.9,�L
2021/04/29,13:00,0.601,0.871,0.566,1.079,0.758,0.360,0.630,0.592,�k,4.7,�L
2021/04/29,13:10,0.598,0.872,0.564,1.075,0.755,0.361,0.628,0.591,�k,4.2,�L
2021/04/29,13:20,0.597,0.871,0.565,1.075,0.753,0.360,0.628,0.591,�k,4.4,�L
2021/04/29,13:30,0.596,0.870,0.564,1.073,0.750,0.360,0.627,0.588,�k�k��,4.7,�L
2021/04/29,13:40,0.594,0.867,0.563,1.070,0.749,0.359,0.627,0.588,�k,2.0,�L
2021/04/29,13:50,0.594,0.865,0.562,1.066,0.743,0.358,0.626,0.587,�k��,4.3,�L
2021/04/29,14:00,0.596,0.867,0.564,1.066,0.747,0.359,0.627,0.590,�k�k��,5.1,�L
2021/04/29,14:10,0.597,0.868,0.563,1.068,0.745,0.361,0.626,0.588,�k�k��,3.9,�L
2021/04/29,14:20,0.600,0.872,0.565,1.071,0.750,0.361,0.627,0.589,�k�k��,4.2,�L
2021/04/29,14:30,0.600,0.871,0.566,1.070,0.746,0.362,0.626,0.591,�k�k��,2.3,�L
2021/04/29,14:40,0.598,0.866,0.563,1.068,0.746,0.361,0.626,0.589,�k�k��,3.3,�L
2021/04/29,14:50,0.598,0.870,0.564,1.069,0.745,0.362,0.627,0.591,�k�k��,4.0,�L
2021/04/29,15:00,0.599,0.868,0.564,1.067,0.745,0.360,0.626,0.591,�k�k��,3.5,�L
2021/04/29,15:10,0.599,0.867,0.564,1.069,0.745,0.362,0.626,0.589,�k��,2.9,�L
2021/04/29,15:20,0.598,0.867,0.564,1.067,0.743,0.361,0.627,0.588,�k�k��,3.4,�L
2021/04/29,15:30,0.598,0.870,0.564,1.069,0.746,0.361,0.627,0.590,�k��,2.8,�L
2021/04/29,15:40,0.599,0.871,0.566,1.074,0.748,0.362,0.628,0.590,���k��,2.3,�L
2021/04/29,15:50,0.600,0.872,0.564,1.072,0.749,0.364,0.627,0.591,�k��,2.8,�L
2021/04/29,16:00,0.599,0.873,0.565,1.074,0.746,0.362,0.627,0.590,�k��,2.6,�L
2021/04/29,16:10,0.599,0.873,0.564,1.073,0.746,0.363,0.628,0.589,�k�k��,2.2,�L
2021/04/29,16:20,0.599,0.869,0.563,1.072,0.745,0.363,0.627,0.589,���k��,1.2,�L
2021/04/29,16:30,0.599,0.873,0.564,1.072,0.746,0.363,0.627,0.588,�k�k��,1.7,�L
2021/04/29,16:40,0.596,0.866,0.562,1.065,0.741,0.362,0.624,0.587,�k,1.9,�L
2021/04/29,16:50,0.596,0.867,0.562,1.067,0.742,0.361,0.625,0.588,�k�k��,1.9,�L
2021/04/29,17:00,0.597,0.870,0.563,1.070,0.744,0.360,0.627,0.588,�k�k��,1.1,�L
2021/04/29,17:10,0.599,0.869,0.565,1.073,0.746,0.362,0.626,0.589,-,CALM,�L
2021/04/29,17:20,0.598,0.872,0.565,1.074,0.747,0.364,0.627,0.592,�쓌,1.4,�L
2021/04/29,17:30,0.600,0.873,0.565,1.073,0.745,0.362,0.627,0.592,��쓌,3.3,�L
2021/04/29,17:40,0.599,0.872,0.566,1.072,0.742,0.363,0.629,0.590,��,6.7,�L
2021/04/29,17:50,0.601,0.870,0.565,1.074,0.745,0.363,0.628,0.591,��,10.5,�L
2021/04/29,18:00,0.603,0.870,0.566,1.070,0.746,0.364,0.628,0.590,��,10.3,�L
2021/04/29,18:10,0.601,0.872,0.565,1.075,0.747,0.363,0.629,0.592,��,8.6,�L
2021/04/29,18:20,0.601,0.870,0.564,1.075,0.748,0.362,0.627,0.589,��,8.4,�L
2021/04/29,18:30,0.599,0.868,0.563,1.074,0.740,0.359,0.625,0.589,��,13.3,�L
2021/04/29,18:40,0.595,0.866,0.562,1.070,0.742,0.359,0.626,0.588,��,8.3,�L
2021/04/29,18:50,0.595,0.864,0.561,1.070,0.738,0.359,0.627,0.588,��,9.1,�L
2021/04/29,19:00,0.597,0.865,0.564,1.068,0.740,0.359,0.627,0.589,��쓌,11.6,�L
2021/04/29,19:10,0.597,0.865,0.561,1.071,0.739,0.360,0.626,0.589,��,12.7,�L
2021/04/29,19:20,0.597,0.868,0.561,1.073,0.741,0.360,0.627,0.588,��쓌,12.4,�L
2021/04/29,19:30,0.599,0.869,0.560,1.071,0.744,0.362,0.627,0.589,��,12.2,�L
2021/04/29,19:40,0.598,0.872,0.563,1.075,0.744,0.361,0.627,0.591,��,11.1,�L
2021/04/29,19:50,0.600,0.872,0.561,1.076,0.744,0.361,0.629,0.590,��,9.5,�L
2021/04/29,20:00,0.601,0.873,0.564,1.076,0.746,0.363,0.629,0.592,��,8.8,�L
2021/04/29,20:10,0.600,0.873,0.563,1.078,0.745,0.362,0.628,0.588,��,10.8,�L
2021/04/29,20:20,0.601,0.873,0.565,1.077,0.745,0.363,0.630,0.592,��,11.1,�L
2021/04/29,20:30,0.600,0.875,0.563,1.080,0.745,0.362,0.630,0.589,��,12.0,�L
2021/04/29,20:40,0.601,0.877,0.562,1.079,0.748,0.362,0.630,0.591,��,10.6,�L
2021/04/29,20:50,0.602,0.876,0.563,1.078,0.748,0.362,0.631,0.592,��,10.8,�L
2021/04/29,21:00,0.602,0.877,0.565,1.082,0.747,0.361,0.632,0.593,��,13.1,�L
2021/04/29,21:10,0.603,0.879,0.564,1.081,0.749,0.364,0.630,0.592,��,11.3,�L
2021/04/29,21:20,0.604,0.882,0.563,1.084,0.749,0.364,0.631,0.592,��,11.3,�L
2021/04/29,21:30,0.604,0.878,0.564,1.085,0.751,0.364,0.631,0.592,��,9.2,�L
2021/04/29,21:40,0.604,0.882,0.565,1.084,0.751,0.363,0.632,0.595,��,7.9,�L
2021/04/29,21:50,0.605,0.883,0.567,1.085,0.751,0.364,0.631,0.595,��쓌,8.4,�L
2021/04/29,22:00,0.605,0.881,0.569,1.085,0.752,0.363,0.631,0.594,��,7.7,�L
2021/04/29,22:10,0.603,0.880,0.567,1.087,0.752,0.365,0.633,0.595,��쓌,9.2,�L
2021/04/29,22:20,0.605,0.883,0.568,1.087,0.752,0.365,0.632,0.596,��쓌,8.2,�L
2021/04/29,22:30,0.604,0.880,0.568,1.089,0.753,0.366,0.633,0.595,��,7.5,�L
2021/04/29,22:40,0.605,0.883,0.567,1.087,0.753,0.365,0.633,0.596,��,7.4,�L
2021/04/29,22:50,0.606,0.882,0.568,1.088,0.751,0.364,0.633,0.595,��,8.3,�L
2021/04/29,23:00,0.605,0.882,0.569,1.090,0.752,0.363,0.634,0.593,��,8.2,�L
2021/04/29,23:10,0.605,0.880,0.566,1.089,0.753,0.364,0.632,0.595,��,8.0,�L
2021/04/29,23:20,0.604,0.884,0.567,1.086,0.752,0.366,0.633,0.595,��,7.0,�L
2021/04/29,23:30,0.604,0.880,0.566,1.090,0.750,0.364,0.632,0.594,��,7.3,�L
2021/04/29,23:40,0.602,0.880,0.566,1.087,0.750,0.364,0.631,0.593,��,7.5,�L
2021/04/29,23:50,0.602,0.878,0.564,1.085,0.748,0.365,0.630,0.592,��,9.1,�L
